Regional Weather Roundup
Issued by NWS

Home | Current Version | Previous Version | Text Only | Print | Product List | Glossary Off
Versions: 1 2 3 4 5 6 7 8 9 10 11 12 13 14 15 16 17 18 19 20 21 22 23 24 25 26 27 28 29 30 31 32 33 34 35 36 37 38 39 40 41 42 43 44 45 46 47 48 49 50

000
ASUS43 KIND 192359
RWRIN

WEATHER ROUNDUP FOR INDIANA
NATIONAL WEATHER SERVICE INDIANAPOLIS IN
700 PM EST FRI JAN 19 2018

NOTE: "FAIR" INDICATES FEW OR NO CLOUDS BELOW 12,000 FEET WITH NO
SIGNIFICANT WEATHER AND/OR OBSTRUCTIONS TO VISIBILITY.

* - STATION DOES NOT REPORT WEATHER SUCH AS PRECIPITATION OR FOG.

+ - STATION NOT QUALITY CONTROLLED BY THE NATIONAL WEATHER SERVICE.
    USE DATA WITH CAUTION...ESPECIALLY DEWPOINT AND RELATIVE
    HUMIDITY OBSERVATIONS.

INZ001>003-010>013-019-020-200100-
NORTHWEST INDIANA

CITY           SKY/WX    TMP DP  RH WIND       PRES   REMARKS
KNOX *+        FAIR      32  25  74 S15       29.83F WCI  22
MICHIGAN CITY+ FAIR      34  27  75 S18G32    29.80S WCI  23
MONTICELLO +   FAIR      35  23  62 S17       29.87S WCI  24
6HR MIN TEMP:  32; 6HR MAX TEMP:  37;

RENSSELAER +   FAIR      34  25  69 S21       29.86S WCI  22

$$

LMZ046-743>745-200100-
SOUTHERN LAKE MICHIGAN

STATION/POSITION TIME  TEMP    WIND        PRES    WAVE
                       AIR SEA DIR/SP/G            HT
                 (UTC) (F)     (DEG/KT/KT) (MB)    (FT)
BURNS HARBOR     2340   35     190/ 20/ 25 1009.1F
MICHIGAN CITY    2330   35     180/ 19/ 26   N/A

$$

INZ004-005-014>016-021>024-200100-
NORTH CENTRAL INDIANA

CITY           SKY/WX    TMP DP  RH WIND       PRES   REMARKS
ELKHART        FAIR      32  23  69 S12G17    29.81F WCI  23
GOSHEN         FAIR      33  23  66 SW17G30   29.82F WCI  22
PERU/GRISSOM   FAIR      34  26  70 S16       29.88S WCI  24
6HR MIN TEMP:  33; 6HR MAX TEMP:  36;

SOUTH BEND     FAIR      34  22  61 SW20      29.80F WCI  23
6HR MIN TEMP:  32; 6HR MAX TEMP:  35;


$$

INZ006>009-017-018-025>027-200100-
NORTHEAST INDIANA

CITY           SKY/WX    TMP DP  RH WIND       PRES   REMARKS
FORT WAYNE     MOCLDY    33  24  69 SW15      29.89S WCI  23
6HR MIN TEMP:  33; 6HR MAX TEMP:  36;

KENDALLVILLE + FAIR      34  23  65 SW15G28   29.84S WCI  24

$$

INZ028-029-035-036-043>045-051>053-200100-
WEST CENTRAL INDIANA

CITY           SKY/WX    TMP DP  RH WIND       PRES   REMARKS
CRAWFORDSVL +  FAIR      32  24  72 MISG      29.93R
6HR MIN TEMP:  32; 6HR MAX TEMP:  34;

GREENCASTLE +  FAIR      34  21  60 S9G18     29.97F WCI  26
LAFAYETTE      FAIR      34  24  67 SW12G20   29.91R WCI  25
6HR MIN TEMP:  33; 6HR MAX TEMP:  37;

TERRE HAUTE    FAIR      34  21  59 S14       29.99S WCI  25
6HR MIN TEMP:  32; 6HR MAX TEMP:  36;


$$

INZ030>032-037>040-046>048-054>057-064-065-200100-
CENTRAL INDIANA

CITY           SKY/WX    TMP DP  RH WIND       PRES   REMARKS
COLUMBUS       CLEAR     32  18  55 S10       30.02F WCI  24
INDIANAPOLIS   FAIR      37  26  64 S13       29.96F WCI  29
6HR MIN TEMP:  35; 6HR MAX TEMP:  41;

-EAGLE CREEK   FAIR      37  23  56 S9        29.95F WCI  30
6HR MIN TEMP:  34; 6HR MAX TEMP:  40;

MT COMFORT *+  FAIR      32  25  74 S9        29.96F WCI  24
SHELBYVILLE    FAIR      35  21  56 S14       29.99R WCI  26
6HR MIN TEMP:  31; 6HR MAX TEMP:  37;


$$

INZ033-034-041-042-049-050-058-059-200100-
EAST CENTRAL INDIANA

CITY           SKY/WX    TMP DP  RH WIND       PRES   REMARKS
MUNCIE         FAIR      35  21  56 S16G23    29.93F WCI  25
6HR MIN TEMP:  33; 6HR MAX TEMP:  36;

RICHMOND +     FAIR      30  23  74 S13       29.99F WCI  20

$$

INZ060-061-067>069-081>083-085>088-200100-
SOUTHWEST INDIANA

CITY           SKY/WX    TMP DP  RH WIND       PRES   REMARKS
EVANSVILLE     FAIR      38  20  48 S9        30.07S WCI  31
6HR MIN TEMP:  33; 6HR MAX TEMP:  40;

HUNTINGBURG +  FAIR      36  21  54 S10       30.07S WCI  28
6HR MIN TEMP:  33; 6HR MAX TEMP:  38;


$$

INZ062-063-066-070>080-084-089>092-200100-
SOUTH CENTRAL AND SOUTHEAST INDIANA

CITY           SKY/WX    TMP DP  RH WIND       PRES   REMARKS
BLOOMINGTON    FAIR      36  22  56 S13       30.01R WCI  27
6HR MIN TEMP:  36; 6HR MAX TEMP:  42;

FRENCH LICK *+ FAIR      36  18  48 S8G17     30.06S WCI  29
MADISON *+     FAIR      34  21  60 S6        30.08R WCI  29
SEYMOUR +      FAIR      36  21  55 S7        30.05R WCI  30

$$





USA.gov is the U.S. government's official web portal to all federal, state and local government web resources and services.